Capitán FAP Renán Elías Olivera International Airport
SPSO : rendu visible

Aérodrome :











RETROUVEZ-NOUS SUR...

 
LOGIN :

S'inscrire | Disclaimer

   EN    FR    IT 

 









Légende :    VFR   VFR Marginal   IFR   IFR Intensif   IFR Très Intensif
Visi : 
Plafond : 
>= 8 km
>= 3000ft
5 à 8 km
1000 à 3000 ft
1500m à 5 km
500 à 1000 ft
800 à 1500m
200 à 500 ft
< 800m
< 200 ft
Symboles :   Orages  Brouillard  Fortes neiges  Fortes précipitations  Vent > 20 kt






- Altitude de l'aérodrome : 39 ft
- Code IATA : PIO


SPSO - Capitán FAP Renán Elías Olivera International

DERNIER METAR :
  • 251400Z 27005KT 240V310 CAVOK 19/15 Q1015 RMK BIRD HAZARD RWY 22/04 PP000

METARs EXPIRÉS :
  • 251300Z VRB02KT 8000 NSC 19/15 Q1015 RMK BIRD HAZARD RWY 22/04 PP000
  • 251200Z VRB02KT 6000 NSC 16/14 Q1015 RMK BIRD HAZARD RWY 22/04 TN13.4 PP000

TAF SPSO
Valide du 25 à 12h jusqu'au 26 à 12h UTC


251110Z 2512/2612 20005KT 7000 SCT015 TX21/2519Z TN15/2611Z
TEMPO 2512/2513 3000 BR
FM251530 27008KT 9999 FEW015
FM251900 21012KT CAVOK
FIR SPIM / Amérique du Sud



MET'MAP, la Météo Aéronautique d'un coup d'oeil ! - Copyright ORBIFLY Décembre 2007 - Disclaimer

ORBIFLY MET'MAP TEAM :

Programmation & Développement : Alexandra Zaïnal
Sur une idée originale de : Baudouin d'Aumeries
Assistance à la programmation : Marc-Olivier Méhu
Soutien technique & logistique : Manuel Goepfert

Contact : metmap@orbifly.com




SOURCES & CREDITS :

   NOAA       Earth
Advisory